Date String (YYYY-MM-DD hh:mm:ss) UTC,Instrument flags,Ambient pressure (hPa),Sample flow (lpm),Bypass flow (lpm),Sample temperature (°C),Ambient temperature (°C),ASC tube jacket temperature (°C),LED temperature (°C),Box temperature (°C),Sample RH (%),Span deviation,Mass concentration (μg/m³),Mass concentration (μg/m³),Mass concentration (μg/m³)
DateTimeUTC,F1_M11,P_M11,Q1_M11,Q2_M11,T1_M11,T2_M11,T3_M11,T4_M11,T5_M11,U1_M11,ZSPAN_M11,X0_M11,X2_M11,X1_M11
2023-04-22 05:00:00,,0833.5,5.00,0.00,23.2,22.1,00.0,31.6,24.8,18.2,0000.0,0006.23,0003.29,0002.71
2023-04-22 05:01:00,,0833.4,5.00,0.00,23.2,22.0,00.0,31.6,24.8,18.2,0000.0,0006.91,0003.33,0002.75
2023-04-22 05:02:00,,0833.4,5.00,0.00,23.2,22.0,00.0,31.6,24.8,18.1,0000.0,0007.29,0003.38,0002.77
2023-04-22 05:03:00,,0833.5,5.01,0.00,23.2,21.9,00.0,31.6,24.8,18.1,0000.0,0007.24,0003.38,0002.78
2023-04-22 05:04:00,,0833.5,4.99,0.00,23.2,21.9,00.0,31.6,24.7,18.2,0000.0,0006.84,0003.35,0002.78
2023-04-22 05:05:00,,0833.5,5.01,0.00,23.2,21.8,00.0,31.6,24.7,18.2,0000.0,0005.72,0003.33,0002.78
2023-04-22 05:06:00,,0833.5,5.01,0.00,23.2,21.8,00.0,31.6,24.7,18.2,0000.0,0005.65,0003.32,0002.76
2023-04-22 05:07:00,,0833.6,5.00,0.00,23.2,21.7,00.0,31.6,24.7,18.2,0000.0,0005.62,0003.30,0002.76
2023-04-22 05:08:00,,0833.5,4.99,0.00,23.2,21.7,00.0,31.6,24.7,18.2,0000.0,0005.72,0003.31,0002.74
2023-04-22 05:09:00,,0833.6,4.99,0.00,23.1,21.7,00.0,31.6,24.7,18.2,0000.0,0005.75,0003.31,0002.74
2023-04-22 05:10:00,,0833.6,5.00,0.00,23.1,21.6,00.0,31.6,24.6,18.3,0000.0,0005.87,0003.35,0002.74
2023-04-22 05:11:00,,0833.6,4.99,0.00,23.1,21.6,00.0,31.6,24.6,18.3,0000.0,0005.82,0003.34,0002.73
2023-04-22 05:12:00,,0833.6,5.01,0.00,23.1,21.6,00.0,31.6,24.6,18.3,0000.0,0005.20,0003.31,0002.72
2023-04-22 05:13:00,,0833.6,5.01,0.00,23.1,21.6,00.0,31.6,24.6,18.4,0000.0,0004.93,0003.29,0002.71
2023-04-22 05:14:00,,0833.6,5.00,0.00,23.1,21.5,00.0,31.6,24.6,18.7,0000.0,0004.78,0003.25,0002.69
2023-04-22 05:15:00,,0833.6,4.99,0.00,23.1,21.5,00.0,31.5,24.6,18.5,0000.0,0004.86,0003.26,0002.69
2023-04-22 05:16:00,,0833.5,5.00,0.00,23.1,21.5,00.0,31.5,24.6,18.5,0000.0,0004.99,0003.26,0002.68
2023-04-22 05:17:00,,0833.5,5.00,0.00,23.1,21.5,00.0,31.5,24.6,18.5,0000.0,0005.38,0003.26,0002.68
2023-04-22 05:18:00,,0833.4,5.00,0.00,23.1,21.5,00.0,31.5,24.6,18.5,0000.0,0006.27,0003.27,0002.68
2023-04-22 05:19:00,,0833.4,5.00,0.00,23.1,21.5,00.0,31.5,24.6,18.5,0000.0,0006.16,0003.25,0002.68
2023-04-22 05:20:00,,0833.4,5.00,0.00,23.1,21.5,00.0,31.5,24.6,18.5,0000.0,0006.12,0003.23,0002.67
2023-04-22 05:21:00,,0833.4,5.01,0.00,23.1,21.4,00.0,31.5,24.6,18.5,0000.0,0006.06,0003.22,0002.67
2023-04-22 05:22:00,,0833.4,5.00,0.00,23.1,21.5,00.0,31.5,24.6,18.5,0000.0,0006.13,0003.22,0002.67
2023-04-22 05:23:00,,0833.4,5.00,0.00,23.1,21.5,00.0,31.5,24.6,18.5,0000.0,0006.12,0003.22,0002.67
2023-04-22 05:24:00,,0833.5,5.01,0.00,23.1,21.5,00.0,31.5,24.6,18.5,0000.0,0006.13,0003.24,0002.68
2023-04-22 05:25:00,,0833.4,5.00,0.00,23.0,21.5,00.0,31.5,24.6,18.5,0000.0,0006.24,0003.27,0002.69
2023-04-22 05:26:00,,0833.4,5.00,0.00,23.0,21.5,00.0,31.5,24.5,18.5,0000.0,0006.23,0003.28,0002.69
2023-04-22 05:27:00,,0833.4,4.99,0.00,23.0,21.5,00.0,31.5,24.6,18.6,0000.0,0006.17,0003.28,0002.71
2023-04-22 05:28:00,,0833.4,5.00,0.00,23.0,21.5,00.0,31.5,24.6,18.6,0000.0,0005.95,0003.29,0002.71
2023-04-22 05:29:00,,0833.4,5.00,0.00,23.0,21.5,00.0,31.5,24.6,18.6,0000.0,0004.75,0003.26,0002.71
2023-04-22 05:30:00,,0833.6,5.00,0.00,23.0,21.5,00.0,31.4,24.6,18.6,0000.0,0005.21,0003.24,0002.71
2023-04-22 05:31:00,,0833.6,4.99,0.00,23.0,21.5,00.0,31.4,24.6,18.6,0000.0,0005.17,0003.22,0002.72
2023-04-22 05:32:00,,0833.6,5.01,0.00,23.0,21.5,00.0,31.4,24.6,18.6,0000.0,0005.01,0003.19,0002.73
2023-04-22 05:33:00,,0833.6,5.01,0.00,23.0,21.5,00.0,31.4,24.6,18.6,0000.0,0004.90,0003.18,0002.74
2023-04-22 05:34:00,,0833.6,5.01,0.00,23.0,21.5,00.0,31.4,24.6,18.6,0000.0,0005.00,0003.19,0002.77
2023-04-22 05:35:00,,0833.6,4.99,0.00,23.0,21.5,00.0,31.4,24.6,18.7,0000.0,0005.04,0003.20,0002.78
2023-04-22 05:36:00,,0833.6,4.99,0.00,23.0,21.5,00.0,31.4,24.6,18.7,0000.0,0005.20,0003.22,0002.79
2023-04-22 05:37:00,,0833.5,5.01,0.00,23.0,21.5,00.0,31.4,24.6,18.6,0000.0,0005.12,0003.20,0002.80
2023-04-22 05:38:00,,0833.5,5.00,0.00,23.0,21.5,00.0,31.4,24.5,18.6,0000.0,0005.15,0003.20,0002.81
2023-04-22 05:39:00,,0833.6,5.00,0.00,23.0,21.5,00.0,31.4,24.6,18.6,0000.0,0005.10,0003.19,0002.82
2023-04-22 05:40:00,,0833.6,5.00,0.00,23.0,21.5,00.0,31.4,24.5,18.6,0000.0,0005.22,0003.21,0002.82
2023-04-22 05:41:00,,0833.6,5.01,0.00,23.0,21.5,00.0,31.4,24.5,18.6,0000.0,0004.87,0003.24,0002.81
2023-04-22 05:42:00,,0833.7,4.99,0.00,23.0,21.5,00.0,31.4,24.6,18.5,0000.0,0004.82,0003.25,0002.80
2023-04-22 05:43:00,,0833.7,5.01,0.00,23.0,21.5,00.0,31.4,24.6,18.6,0000.0,0004.98,0003.27,0002.81
2023-04-22 05:44:00,,0833.7,5.01,0.00,23.0,21.5,00.0,31.4,24.6,18.8,0000.0,0004.99,0003.27,0002.79
2023-04-22 05:45:00,,0833.7,5.00,0.00,23.0,21.5,00.0,31.4,24.6,18.6,0000.0,0004.98,0003.26,0002.77
2023-04-22 05:46:00,,0833.7,5.00,0.00,22.9,21.5,00.0,31.3,24.6,18.6,0000.0,0004.94,0003.24,0002.74
2023-04-22 05:47:00,,0833.6,4.99,0.00,22.9,21.5,00.0,31.4,24.5,18.6,0000.0,0004.88,0003.23,0002.72
2023-04-22 05:48:00,,0833.7,4.99,0.00,22.9,21.5,00.0,31.3,24.5,18.5,0000.0,0005.12,0003.27,0002.71
2023-04-22 05:49:00,,0833.7,4.99,0.00,22.9,21.4,00.0,31.3,24.5,18.5,0000.0,0005.17,0003.28,0002.70
2023-04-22 05:50:00,,0833.7,5.00,0.00,22.9,21.4,00.0,31.3,24.5,18.6,0000.0,0005.23,0003.29,0002.70
2023-04-22 05:51:00,,0833.7,5.01,0.00,22.9,21.4,00.0,31.3,24.5,18.5,0000.0,0005.36,0003.31,0002.71
2023-04-22 05:52:00,,0833.7,5.00,0.00,22.9,21.4,00.0,31.3,24.5,18.5,0000.0,0005.24,0003.30,0002.73
2023-04-22 05:53:00,,0833.7,5.01,0.00,22.9,21.4,00.0,31.3,24.5,18.5,0000.0,0005.28,0003.30,0002.75
2023-04-22 05:54:00,,0833.7,5.00,0.00,22.9,21.4,00.0,31.3,24.5,18.5,0000.0,0005.26,0003.30,0002.74
2023-04-22 05:55:00,,0833.7,5.00,0.00,22.9,21.4,00.0,31.3,24.5,18.5,0000.0,0005.26,0003.31,0002.74
2023-04-22 05:56:00,,0833.7,5.01,0.00,22.9,21.3,00.0,31.3,24.5,18.5,0000.0,0005.27,0003.31,0002.73
2023-04-22 05:57:00,,0833.7,5.00,0.00,22.9,21.3,00.0,31.3,24.4,18.5,0000.0,0005.23,0003.30,0002.74
2023-04-22 05:58:00,,0833.7,5.00,0.00,22.9,21.3,00.0,31.3,24.5,18.5,0000.0,0005.18,0003.29,0002.74
2023-04-22 05:59:00,,0833.7,5.00,0.00,22.9,21.3,00.0,31.3,24.5,18.5,0000.0,0004.95,0003.25,0002.73
